Location: *
(28.2408°N, 53.4600°E)
Time: 07:55:57
(UTC+00:00)

Cosmos 405 Rocket - Pass Details

Date: 22 September 2019
Orbit: 491 x 554 km, 81.3° (Epoch: 20 October)

Event Time Altitude Azimuth Distance (km) Brightness Sun altitude
Rises 15:15:25 0° 173° (S) 2,554 6.1 -12.3°
Reaches altitude 10° 15:17:34 10° 167° (SSE) 1,674 5.1 -12.8°
Maximum altitude 15:21:04 44° 94° (E) 688 2.8 -13.5°
Drops below altitude 10° 15:24:35 10° 22° (NNE) 1,687 5.2 -14.3°
Sets 15:26:46 0° 16° (NNE) 2,577 6.2 -14.8°
